Weather History for Bishop, CA

Change the Weather History Date:

Monday, November 19, 2012

  Actual Average Record
Temperature  
Mean Temperature 45 °F 44 °F  
Max Temperature 60 °F 61 °F 77 °F (2005)
Min Temperature 29 °F 27 °F 9 °F (1985)
Degree Days  
Heating Degree Days 20 21  
Month to date heating degree days 362 337  
Since 1 July heating degree days 601 644  
Cooling Degree Days 0 0  
Month to date cooling degree days 0 0  
Year to date cooling degree days 1161 1104  
Moisture  
Dew Point 23 °F    
Average Humidity 49    
Maximum Humidity 69    
Minimum Humidity 28    
Precipitation  
Precipitation 0.00 in 0.02 in 1.28 in (1950)
Month to date precipitation T 0.32  
Year to date precipitation 2.67 4.18  
Snow  
Snow 0.00 in 0.00 in - ()
Month to date snowfall 0.0 0.2  
Since 1 July snowfall 0.0 0.2  
Since 1 September snowfall 0.0 0.2  
Snow Depth 0.00 in    
Sea Level Pressure  
Sea Level Pressure 30.18 in    
Wind  
Wind Speed 4 mph (WSW)    
Max Wind Speed 14 mph    
Max Gust Speed 30 mph    
Visibility 10 miles    
Events      
T = Trace of Precipitation, MM = Missing Value Source: NWS Daily Summary

Daily Weather History Graph

Daily Weather History Graph

Search for Another Location

Airport:

Trip Planner

Search our weather history database for the weather conditions in past years. The results will help you decide how hot, cold, wet, or windy it might be!

Date:

Astronomy

Nov. 19, 2012 Rise Set
Actual Time 6:37 AM PST 4:40 PM PST
Civil Twilight 6:09 AM PST 5:08 PM PST
Nautical Twilight 5:37 AM PST 5:39 PM PST
Astronomical Twilight 5:06 AM PST 6:10 PM PST
Moon 11:46 AM PST (11/19) 11:08 PM PST (11/19)
Length of Visible Light 10h 58m
Length of Day
10h 02m
Waxing Crescent, 42% of the Moon is Illuminated
Nov 19
Waxing Crescent
Nov 20
First Quarter
Nov 28
Full
Dec 6
Last Quarter
Dec 13
New

Hourly Weather History & Observations

Time (PST) Temp. Windchill Dew Point Humidity Pressure Visibility Wind Dir Wind Speed Gust Speed Precip Events Conditions
12:56 AM 32.0 °F - 19.9 °F 61% 30.08 in 10.0 mi Calm Calm - N/A   Clear
1:56 AM 32.0 °F 25.6 °F 21.0 °F 64% 30.09 in 10.0 mi NW 6.9 mph - N/A   Clear
2:56 AM 32.0 °F 27.5 °F 19.9 °F 61% 30.11 in 10.0 mi WNW 4.6 mph - N/A   Clear
3:56 AM 30.2 °F - 19.4 °F 64% 30.15 in 10.0 mi Calm Calm - N/A   Clear
4:56 AM 30.9 °F - 21.0 °F 67% 30.13 in 10.0 mi Calm Calm - N/A   Clear
5:56 AM 32.0 °F 24.8 °F 21.0 °F 64% 30.16 in 10.0 mi West 8.1 mph - N/A   Clear
6:56 AM 30.9 °F - 19.9 °F 64% 30.20 in 10.0 mi Calm Calm - N/A   Overcast
7:56 AM 37.0 °F - 23.0 °F 57% 30.22 in 10.0 mi Calm Calm - N/A   Clear
8:56 AM 46.0 °F - 23.0 °F 40% 30.22 in 10.0 mi Calm Calm - N/A   Clear
9:56 AM 51.1 °F - 24.1 °F 35% 30.21 in 10.0 mi NE 3.5 mph - N/A   Clear
10:56 AM 54.0 °F - 26.1 °F 34% 30.21 in 10.0 mi SSE 5.8 mph - N/A   Clear
11:56 AM 57.0 °F - 28.0 °F 33% 30.18 in 10.0 mi South 9.2 mph - N/A   Clear
12:56 PM 57.9 °F - 26.1 °F 30% 30.16 in 10.0 mi SSE 9.2 mph - N/A   Clear
1:56 PM 59.0 °F - 26.1 °F 28% 30.14 in 10.0 mi South 6.9 mph - N/A   Clear
2:56 PM 59.0 °F - 26.1 °F 28% 30.14 in 10.0 mi South 10.4 mph - N/A   Clear
3:56 PM 57.9 °F - 26.1 °F 30% 30.15 in 10.0 mi SSE 9.2 mph - N/A   Clear
4:56 PM 51.1 °F - 25.0 °F 36% 30.18 in 10.0 mi SSE 4.6 mph - N/A   Clear
5:56 PM 48.0 °F - 25.0 °F 41% 30.20 in 10.0 mi Calm Calm - N/A   Clear
6:56 PM 45.0 °F - 26.1 °F 48% 30.22 in 10.0 mi Calm Calm - N/A   Clear
7:56 PM 37.9 °F - 23.0 °F 55% 30.23 in 10.0 mi Calm Calm - N/A   Clear
8:56 PM 36.0 °F 31.1 °F 21.9 °F 57% 30.22 in 10.0 mi NW 5.8 mph - N/A   Clear
9:56 PM 34.0 °F 28.8 °F 21.9 °F 61% 30.22 in 10.0 mi NNW 5.8 mph - N/A   Clear
10:56 PM 34.0 °F 29.8 °F 23.0 °F 64% 30.22 in 10.0 mi NNW 4.6 mph - N/A   Clear
11:56 PM 30.0 °F 25.2 °F 21.0 °F 69% 30.22 in 9.0 mi WNW 4.6 mph - N/A   Clear